PST,Max TemperatureF,Mean TemperatureF,Min TemperatureF,Max Dew PointF,MeanDew PointF,Min DewpointF,Max Humidity, Mean Humidity, Min Humidity, Max Sea Level PressureIn, Mean Sea Level PressureIn, Min Sea Level PressureIn, Max VisibilityMiles, Mean VisibilityMiles, Min VisibilityMiles, Max Wind SpeedMPH, Mean Wind SpeedMPH, Max Gust SpeedMPH,PrecipitationIn, CloudCover, Events, WindDirDegrees
2012-11-1,55,52,48,51,49,47,97,93,80,29.98,29.84,29.68,10,4,0,6,1,,0.00,7,Fog-Rain,199
2012-11-2,55,50,46,50,48,45,100,93,80,30.00,29.96,29.89,10,4,0,6,2,,0.04,7,Fog-Rain,132
2012-11-3,57,52,48,53,50,46,97,91,83,30.17,30.00,29.91,10,9,2,8,2,,0.00,6,Rain,243
2012-11-4,60,55,51,54,52,49,97,93,80,30.25,30.16,30.09,10,5,0,15,2,22,0.12,7,Fog-Rain,293
2012-11-5,55,49,43,48,45,41,93,80,62,30.40,30.33,30.18,10,10,9,16,8,,0.00,1,,257
2012-11-6,52,48,44,47,45,39,97,88,71,30.17,30.00,29.88,10,9,2,16,5,24,0.00,7,Rain,211
2012-11-7,51,45,39,41,38,35,93,76,56,30.12,30.05,29.93,10,10,10,14,6,,0.00,4,,245
2012-11-8,48,42,35,39,36,31,93,78,54,29.92,29.89,29.86,10,10,10,9,6,,0.00,4,,216
2012-11-9,46,37,28,36,30,26,92,77,46,29.99,29.92,29.88,10,10,10,8,5,,0.00,2,,187
2012-11-10,44,36,28,28,25,19,85,69,38,30.21,30.12,30.00,10,10,10,9,6,,0.00,2,,213
2012-11-11,45,38,30,40,33,27,93,81,60,30.20,30.10,29.98,10,10,6,7,3,,0.04,7,Rain,253
2012-11-12,53,48,43,45,43,41,97,88,71,30.19,30.10,30.00,10,10,10,8,4,,0.00,7,Rain,222
2012-11-13,50,46,43,47,44,41,97,92,83,30.19,30.15,30.12,10,9,2,7,3,,0.06,7,Rain,249
2012-11-14,50,43,36,45,41,35,100,91,80,30.33,30.29,30.18,10,7,0,7,3,,0.00,6,Fog,265
2012-11-15,45,40,35,42,40,33,97,89,82,30.28,30.10,29.94,10,10,6,7,3,,0.00,7,Rain,162
2012-11-16,48,41,34,41,37,32,97,87,68,29.93,29.82,29.62,10,10,4,8,5,,0.01,6,Rain,207
2012-11-17,50,46,41,47,43,38,97,88,74,29.63,29.51,29.38,10,10,5,15,6,32,0.16,7,Rain,231
2012-11-18,50,46,41,42,40,38,93,82,66,29.67,29.56,29.33,10,10,8,15,4,30,0.08,7,Rain,157
2012-11-19,48,44,39,45,43,38,97,92,83,29.65,29.45,29.30,10,8,2,9,4,,0.90,7,Rain,244
2012-11-20,48,42,37,45,40,37,100,93,86,29.65,29.58,29.40,10,6,1,12,3,,0.09,6,Rain,193
2012-11-21,46,42,35,41,38,33,93,85,76,30.26,29.78,29.50,10,10,2,14,8,,0.15,6,Rain,249
2012-11-22,46,40,34,40,37,32,96,85,74,30.31,30.24,30.06,10,10,10,12,3,,0.00,4,Rain,231
2012-11-23,51,47,43,48,46,40,97,92,79,30.12,30.03,29.98,10,9,2,10,2,,0.06,7,Rain,192
2012-11-24,48,44,39,41,37,34,89,80,71,30.27,30.23,30.14,10,10,10,12,8,,0.00,1,,252
2012-11-25,46,42,37,38,35,32,93,77,68,30.35,30.31,30.26,10,10,10,15,8,16,0.00,7,,152
2012-11-26,44,38,32,38,35,30,92,81,71,30.27,30.15,30.07,10,10,10,10,6,16,0.00,6,,115
2012-11-27,45,40,36,38,36,33,93,83,74,30.09,30.02,29.92,10,10,10,8,5,,0.00,6,,193
2012-11-28,46,40,34,44,39,33,97,90,82,29.90,29.68,29.55,10,9,4,8,3,,0.02,6,Rain,189
2012-11-29,54,48,41,48,44,39,97,91,77,29.63,29.49,29.37,10,7,2,9,3,,0.00,6,Rain,184
2012-11-30,50,46,43,47,45,41,97,93,83,29.37,29.34,29.29,10,8,2,12,4,,0.52,7,Rain,214